Location: Dompnac
(44.5644°N, 4.1026°E)
Time: 10:52:31
(UTC+00:00)

SJ 16-02 - Pass Details

Date: 19 September 2020
Orbit: 606 x 616 km, 75.0° (Epoch: 30 October)

Event Time Altitude Azimuth Distance (km) Brightness Sun altitude
Rises 18:11:33 0° 211° (SSW) 2,852 5.1 -5.4°
Reaches altitude 10° 18:13:50 10° 217° (SW) 1,952 4.4 -5.8°
Maximum altitude 18:18:04 50° 293° (WNW) 774 2.4 -6.5°
Drops below altitude 10° 18:22:20 10° 10° (N) 1,965 3.9 -7.3°
Sets 18:24:38 0° 15° (NNE) 2,873 4.7 -7.7°
